EWG761 EDDL-EDDP

Flight info

Callsign EWG761
Flight time 0h 41m
Altitude 27000
Route NUDGO5Z/05R NUDGO Z858 BERDI T958 KOJEC KOJEC1R
Aircraft A320/M-SDE3FGHIRWY/LB1

Departure

Time 2026-05-07 19:10
Airport Düsseldorf Airport (EDDL)

Arrival

Time 2026-05-07 19:51
Airport Leipzig/Halle Airport (EDDP)
Time Latitude Longitude Altitude Speed Heading
2026-05-07 18:52 51.27662 6.75607 130 ft 0 kts 63°
2026-05-07 19:04 51.27656 6.75588 125 ft 3 kts 63°
2026-05-07 19:04 51.27648 6.75563 126 ft 3 kts 63°
2026-05-07 19:04 51.27638 6.75539 124 ft 3 kts 31°
2026-05-07 19:04 51.27621 6.75528 124 ft 3 kts 355°
2026-05-07 19:05 51.27611 6.75531 124 ft 0 kts 337°
2026-05-07 19:08 51.27613 6.75530 125 ft 3 kts 337°
2026-05-07 19:08 51.27671 6.75487 126 ft 11 kts 333°
2026-05-07 19:08 51.27735 6.75435 124 ft 10 kts 333°
2026-05-07 19:08 51.27797 6.75386 125 ft 9 kts 334°
2026-05-07 19:09 51.27870 6.75327 124 ft 17 kts 332°
2026-05-07 19:09 51.27992 6.75283 120 ft 19 kts 22°
2026-05-07 19:09 51.28087 6.75466 121 ft 36 kts 52°
2026-05-07 19:09 51.28392 6.76104 128 ft 105 kts 52°
2026-05-07 19:10 51.28948 6.77276 144 ft 156 kts 54°
2026-05-07 19:10 51.29616 6.78720 596 ft 167 kts 54°
2026-05-07 19:10 51.30317 6.80213 1408 ft 166 kts 53°
2026-05-07 19:10 51.31035 6.81721 1861 ft 182 kts 53°
2026-05-07 19:11 51.31850 6.83432 2167 ft 206 kts 53°
2026-05-07 19:11 51.32769 6.85361 2535 ft 230 kts 53°
2026-05-07 19:11 51.33782 6.87517 3059 ft 250 kts 54°
2026-05-07 19:11 51.34679 6.89939 3888 ft 257 kts 68°
2026-05-07 19:12 51.35105 6.92747 4794 ft 264 kts 84°
2026-05-07 19:12 51.35006 6.95698 5663 ft 270 kts 98°
2026-05-07 19:12 51.34695 6.98688 6545 ft 274 kts 98°
2026-05-07 19:12 51.34387 7.01718 7376 ft 278 kts 98°
2026-05-07 19:13 51.34078 7.04795 8193 ft 283 kts 98°
2026-05-07 19:13 51.33760 7.07925 9019 ft 287 kts 99°
2026-05-07 19:13 51.33297 7.11063 9838 ft 292 kts 105°
2026-05-07 19:13 51.32749 7.14206 10465 ft 304 kts 106°
2026-05-07 19:14 51.32347 7.16403 10639 ft 319 kts 107°
2026-05-07 19:14 51.31687 7.19936 10865 ft 342 kts 107°
2026-05-07 19:14 51.30981 7.23692 11200 ft 359 kts 107°
2026-05-07 19:14 51.30026 7.28807 12075 ft 366 kts 107°
2026-05-07 19:15 51.29357 7.32752 12780 ft 370 kts 99°
2026-05-07 19:15 51.29241 7.35530 13233 ft 374 kts 87°
2026-05-07 19:15 51.29623 7.39658 13915 ft 378 kts 79°
2026-05-07 19:15 51.30102 7.43813 14531 ft 382 kts 79°
2026-05-07 19:16 51.30590 7.47951 15138 ft 385 kts 79°
2026-05-07 19:16 51.31089 7.52177 15753 ft 389 kts 79°
2026-05-07 19:16 51.31593 7.56465 16365 ft 392 kts 79°
2026-05-07 19:16 51.32095 7.60765 16959 ft 396 kts 79°
2026-05-07 19:17 51.32595 7.65099 17551 ft 399 kts 79°
2026-05-07 19:17 51.33097 7.69498 18119 ft 403 kts 79°
2026-05-07 19:17 51.33600 7.73915 18647 ft 406 kts 79°
2026-05-07 19:17 51.34106 7.78376 19124 ft 409 kts 79°
2026-05-07 19:18 51.34615 7.82881 19627 ft 412 kts 80°
2026-05-07 19:18 51.35125 7.87416 20118 ft 415 kts 80°
2026-05-07 19:18 51.35631 7.91900 20600 ft 418 kts 79°
2026-05-07 19:18 51.36151 7.96509 21066 ft 421 kts 80°
2026-05-07 19:19 51.36670 8.01142 21544 ft 424 kts 80°
2026-05-07 19:19 51.37187 8.05809 22009 ft 427 kts 80°
2026-05-07 19:19 51.37701 8.10487 22467 ft 429 kts 80°
2026-05-07 19:19 51.38219 8.15220 22922 ft 432 kts 80°
2026-05-07 19:20 51.38740 8.19966 23086 ft 434 kts 80°
2026-05-07 19:20 51.39264 8.24726 23112 ft 433 kts 80°
2026-05-07 19:20 51.39787 8.29482 23111 ft 433 kts 80°
2026-05-07 19:20 51.40305 8.34235 23109 ft 433 kts 80°
2026-05-07 19:21 51.40818 8.39000 23107 ft 433 kts 80°
2026-05-07 19:21 51.41263 8.43716 23105 ft 433 kts 85°
2026-05-07 19:21 51.41327 8.48537 23112 ft 433 kts 91°
2026-05-07 19:21 51.41269 8.53352 23108 ft 433 kts 91°
2026-05-07 19:22 51.41214 8.58174 23114 ft 433 kts 91°
2026-05-07 19:22 51.41158 8.62995 23111 ft 433 kts 91°
2026-05-07 19:22 51.41098 8.67801 23112 ft 433 kts 91°
2026-05-07 19:22 51.41037 8.72608 23110 ft 432 kts 91°
2026-05-07 19:23 51.40859 8.77421 23108 ft 432 kts 97°
2026-05-07 19:23 51.40475 8.82198 23103 ft 432 kts 98°
2026-05-07 19:23 51.40092 8.86960 23110 ft 432 kts 98°
2026-05-07 19:23 51.39712 8.91733 23111 ft 432 kts 97°
2026-05-07 19:24 51.39335 8.96494 23110 ft 431 kts 97°
2026-05-07 19:24 51.38956 9.01278 23109 ft 431 kts 97°
2026-05-07 19:24 51.38609 9.06052 23109 ft 431 kts 94°
2026-05-07 19:24 51.38613 9.10859 23112 ft 432 kts 87°
2026-05-07 19:25 51.38762 9.15651 23110 ft 431 kts 87°
2026-05-07 19:25 51.38910 9.20449 23110 ft 431 kts 87°
2026-05-07 19:25 51.39054 9.25206 23114 ft 431 kts 87°
2026-05-07 19:25 51.39192 9.30005 23113 ft 431 kts 87°
2026-05-07 19:26 51.39324 9.34794 23111 ft 431 kts 87°
2026-05-07 19:26 51.39456 9.39592 23111 ft 431 kts 87°
2026-05-07 19:26 51.39585 9.44324 23110 ft 431 kts 87°
2026-05-07 19:26 51.39716 9.49121 23112 ft 430 kts 88°
2026-05-07 19:27 51.39844 9.53913 23111 ft 430 kts 88°
2026-05-07 19:27 51.39967 9.58700 23108 ft 430 kts 88°
2026-05-07 19:27 51.40087 9.63487 23110 ft 430 kts 88°
2026-05-07 19:27 51.40204 9.68280 23110 ft 430 kts 88°
2026-05-07 19:28 51.40323 9.73074 23112 ft 430 kts 88°
2026-05-07 19:28 51.40443 9.77850 23109 ft 430 kts 88°
2026-05-07 19:28 51.40561 9.82652 23110 ft 430 kts 88°
2026-05-07 19:28 51.40676 9.87385 23107 ft 430 kts 88°
2026-05-07 19:29 51.40788 9.92168 23106 ft 431 kts 88°
2026-05-07 19:29 51.40899 9.96979 23103 ft 431 kts 88°
2026-05-07 19:29 51.41009 10.01767 23106 ft 431 kts 88°
2026-05-07 19:29 51.41117 10.06559 23106 ft 431 kts 88°
2026-05-07 19:30 51.41223 10.11316 23106 ft 431 kts 88°
2026-05-07 19:30 51.41327 10.16118 23106 ft 431 kts 88°
2026-05-07 19:30 51.41429 10.20918 23106 ft 431 kts 88°
2026-05-07 19:30 51.41529 10.25722 23105 ft 431 kts 88°
2026-05-07 19:31 51.41626 10.30535 23107 ft 431 kts 88°
2026-05-07 19:31 51.41722 10.35335 23104 ft 431 kts 88°
2026-05-07 19:31 51.41813 10.40130 23104 ft 431 kts 88°
2026-05-07 19:31 51.41902 10.44928 23105 ft 431 kts 88°
2026-05-07 19:32 51.41990 10.49722 23102 ft 431 kts 88°
2026-05-07 19:32 51.42302 10.54489 23104 ft 431 kts 80°
2026-05-07 19:32 51.42771 10.59165 23105 ft 431 kts 81°
2026-05-07 19:32 51.43238 10.63913 23103 ft 430 kts 81°
2026-05-07 19:33 51.43698 10.68653 23103 ft 430 kts 81°
2026-05-07 19:33 51.44154 10.73398 23106 ft 430 kts 81°
2026-05-07 19:33 51.44601 10.78130 23106 ft 430 kts 81°
2026-05-07 19:33 51.45051 10.82905 23003 ft 437 kts 81°
2026-05-07 19:34 51.45508 10.87740 22679 ft 440 kts 81°
2026-05-07 19:34 51.45968 10.92613 22383 ft 439 kts 81°
2026-05-07 19:34 51.46415 10.97378 22093 ft 438 kts 81°
2026-05-07 19:34 51.46865 11.02193 21807 ft 436 kts 81°
2026-05-07 19:35 51.47311 11.06980 21505 ft 433 kts 81°
2026-05-07 19:35 51.47757 11.11759 21198 ft 431 kts 81°
2026-05-07 19:35 51.48197 11.16513 20798 ft 429 kts 81°
2026-05-07 19:35 51.48630 11.21230 20292 ft 425 kts 81°
2026-05-07 19:36 51.49055 11.25909 19791 ft 422 kts 81°
2026-05-07 19:36 51.49478 11.30554 19305 ft 419 kts 81°
2026-05-07 19:36 51.49896 11.35161 18821 ft 415 kts 81°
2026-05-07 19:36 51.50301 11.39676 18348 ft 412 kts 81°
2026-05-07 19:37 51.50728 11.44203 17806 ft 408 kts 78°
2026-05-07 19:37 51.51457 11.48586 17267 ft 404 kts 70°
2026-05-07 19:37 51.52563 11.52711 16752 ft 399 kts 62°
2026-05-07 19:37 51.53740 11.56711 16229 ft 395 kts 71°
2026-05-07 19:38 51.54212 11.61033 15724 ft 392 kts 84°
2026-05-07 19:38 51.54433 11.65384 15218 ft 389 kts 84°
2026-05-07 19:38 51.54635 11.69701 14732 ft 386 kts 85°
2026-05-07 19:38 51.54826 11.73931 14230 ft 383 kts 85°
2026-05-07 19:39 51.55013 11.78182 13679 ft 380 kts 85°
2026-05-07 19:39 51.55193 11.82400 13082 ft 374 kts 85°
2026-05-07 19:39 51.55370 11.86557 12499 ft 371 kts 85°
2026-05-07 19:39 51.55545 11.90687 11902 ft 368 kts 85°
2026-05-07 19:40 51.55721 11.94769 11326 ft 365 kts 85°
2026-05-07 19:40 51.55899 11.98810 10791 ft 361 kts 85°
2026-05-07 19:40 51.56078 12.02814 10447 ft 353 kts 85°
2026-05-07 19:40 51.56374 12.06583 10186 ft 324 kts 72°
2026-05-07 19:41 51.57369 12.09602 10163 ft 294 kts 47°
2026-05-07 19:41 51.58961 12.11477 10144 ft 283 kts 21°
2026-05-07 19:41 51.60826 12.11985 10068 ft 270 kts 356°
2026-05-07 19:41 51.62554 12.11091 9796 ft 258 kts 327°
2026-05-07 19:42 51.63742 12.09009 9527 ft 254 kts 297°
2026-05-07 19:42 51.64152 12.06247 9029 ft 257 kts 268°
2026-05-07 19:42 51.63721 12.03479 8505 ft 255 kts 248°
2026-05-07 19:42 51.63004 12.00874 7985 ft 254 kts 245°
2026-05-07 19:43 51.62259 11.98315 7479 ft 252 kts 245°
2026-05-07 19:43 51.61512 11.95772 6979 ft 250 kts 245°
2026-05-07 19:43 51.60773 11.93254 6488 ft 248 kts 245°
2026-05-07 19:43 51.60042 11.90760 5958 ft 246 kts 245°
2026-05-07 19:44 51.59253 11.88377 5445 ft 243 kts 230°
2026-05-07 19:44 51.57929 11.86811 5052 ft 234 kts 196°
2026-05-07 19:44 51.56314 11.86516 4914 ft 237 kts 177°
2026-05-07 19:44 51.54675 11.86613 4677 ft 235 kts 175°
2026-05-07 19:45 51.53039 11.86767 4432 ft 235 kts 175°
2026-05-07 19:45 51.51412 11.86930 4235 ft 234 kts 175°
2026-05-07 19:45 51.49791 11.87095 4083 ft 233 kts 175°
2026-05-07 19:45 51.48171 11.87268 3937 ft 233 kts 175°
2026-05-07 19:46 51.46558 11.87445 3774 ft 232 kts 175°
2026-05-07 19:46 51.44945 11.87624 3627 ft 232 kts 175°
2026-05-07 19:46 51.43375 11.88066 3471 ft 229 kts 154°
2026-05-07 19:46 51.42178 11.89659 3356 ft 225 kts 121°
2026-05-07 19:47 51.41703 11.91998 3250 ft 222 kts 90°
2026-05-07 19:47 51.41795 11.94480 3147 ft 223 kts 84°
2026-05-07 19:47 51.41928 11.96923 3047 ft 223 kts 84°
2026-05-07 19:47 51.42053 11.99399 3005 ft 222 kts 84°
2026-05-07 19:48 51.42171 12.01803 2898 ft 213 kts 84°
2026-05-07 19:48 51.42285 12.04140 2669 ft 206 kts 84°
2026-05-07 19:48 51.42392 12.06339 2389 ft 188 kts 84°
2026-05-07 19:48 51.42489 12.08352 2137 ft 176 kts 84°
2026-05-07 19:49 51.42584 12.10309 1908 ft 171 kts 84°
2026-05-07 19:49 51.42669 12.12090 1673 ft 152 kts 84°
2026-05-07 19:49 51.42747 12.13702 1466 ft 143 kts 84°
2026-05-07 19:49 51.42822 12.15276 1263 ft 140 kts 84°
2026-05-07 19:50 51.42896 12.16820 1066 ft 139 kts 84°
2026-05-07 19:50 51.42970 12.18362 875 ft 138 kts 84°
2026-05-07 19:50 51.43043 12.19895 688 ft 138 kts 84°
2026-05-07 19:50 51.43117 12.21421 515 ft 136 kts 85°
2026-05-07 19:51 51.43187 12.22900 430 ft 122 kts 85°
2026-05-07 19:51 51.43233 12.23922 434 ft 51 kts 85°
2026-05-07 19:51 51.43249 12.24323 438 ft 27 kts 90°
2026-05-07 19:51 51.43213 12.24598 430 ft 21 kts 114°
2026-05-07 19:52 51.43168 12.24748 436 ft 11 kts 116°
2026-05-07 19:52 51.43140 12.24840 447 ft 8 kts 116°
2026-05-07 19:52 51.43122 12.24899 448 ft 4 kts 115°
2026-05-07 19:52 51.43111 12.24937 448 ft 7 kts 115°
2026-05-07 19:53 51.43094 12.24996 449 ft 4 kts 115°
2026-05-07 19:53 51.43076 12.25053 449 ft 12 kts 116°
2026-05-07 19:53 51.42967 12.25098 448 ft 21 kts 193°
2026-05-07 19:53 51.42823 12.25045 452 ft 22 kts 193°
2026-05-07 19:54 51.42667 12.24991 462 ft 23 kts 194°
2026-05-07 19:54 51.42517 12.24927 470 ft 23 kts 194°
2026-05-07 19:54 51.42356 12.24864 479 ft 23 kts 194°
2026-05-07 19:54 51.42210 12.24806 485 ft 21 kts 194°
2026-05-07 19:55 51.42053 12.24746 488 ft 25 kts 193°
2026-05-07 19:55 51.41879 12.24681 485 ft 28 kts 192°
2026-05-07 19:55 51.41708 12.24614 479 ft 21 kts 194°
2026-05-07 19:55 51.41652 12.24427 474 ft 21 kts 265°
2026-05-07 19:56 51.41640 12.24188 479 ft 22 kts 265°
2026-05-07 19:56 51.41628 12.23916 473 ft 27 kts 266°
2026-05-07 19:56 51.41614 12.23608 469 ft 29 kts 265°
2026-05-07 19:56 51.41599 12.23298 466 ft 25 kts 266°
2026-05-07 19:57 51.41636 12.23023 458 ft 25 kts 285°
2026-05-07 19:57 51.41682 12.22757 451 ft 25 kts 285°
2026-05-07 19:57 51.41728 12.22494 430 ft 22 kts 285°
2026-05-07 19:57 51.41756 12.22322 429 ft 9 kts 286°
2026-05-07 19:58 51.41770 12.22238 427 ft 7 kts 284°
2026-05-07 19:58 51.41784 12.22160 431 ft 11 kts 286°
2026-05-07 19:58 51.41819 12.21955 433 ft 22 kts 285°
2026-05-07 19:58 51.41861 12.21712 434 ft 23 kts 285°
2026-05-07 19:59 51.41898 12.21496 426 ft 12 kts 286°
2026-05-07 19:59 51.41955 12.21436 436 ft 11 kts 14°
2026-05-07 19:59 51.41997 12.21454 425 ft 0 kts 13°